Location: Huntsville
(41.2590°N, 111.7678°W)
Time: 22:44:36
(UTC+00:00)

SR - Pass Details

Date: 22 June 2021
Orbit: 577 x 878 km, 66.7° (Epoch: 28 July)

Event Time Altitude Azimuth Distance (km) Brightness Sun altitude
Rises 08:37:49 0° 326° (NW) 3,255 ? -23.4°
Reaches altitude 10° 08:40:21 10° 323° (NW) 2,276 ? -23.2°
Maximum altitude 08:45:25 57° 246° (WSW) 826 ? -22.9°
Enters shadow 08:45:27 57° 244° (WSW) 825 ? -22.9°
